Location: Felsheim
(48.7267°N, 10.7386°E)
Time: 23:48:19
(UTC+00:00)

Cosmos 1656 - Pass Details

Date: 09 April 2020
Orbit: 798 x 849 km, 71.1° (Epoch: 29 May)

Event Time Altitude Azimuth Distance (km) Brightness Sun altitude
Rises 19:40:40 0° 334° (NNW) 3,423 7.9 -16.0°
Reaches altitude 10° 19:43:13 10° 339° (NNW) 2,481 7.0 -16.3°
Maximum altitude 19:48:47 53° 56° (NE) 1,027 4.0 -17.1°
Enters shadow 19:51:26 29° 119° (ESE) 1,485 4.4 -17.5°
